Location: *
(45.9500°N, 9.0833°E)
Time: 20:14:50
(UTC+00:00)

Tiros 1 - Pass Details

Date: 17 June 2021
Orbit: 630 x 664 km, 48.4° (Epoch: 05 August)

Event Time Altitude Azimuth Distance (km) Brightness Sun altitude
Rises 11:36:49 0° 249° (WSW) 2,924 10.7 67.3°
Reaches altitude 10° 11:39:07 10° 249° (WSW) 2,022 10.0 67.3°
Maximum altitude 11:43:47 88° 164° (SSE) 648 8.8 67.1°
Drops below altitude 10° 11:48:32 10° 72° (ENE) 2,050 9.7 66.9°
Sets 11:50:53 0° 73° (ENE) 2,968 10.4 66.8°
